| time (UTC) | temp F | wind direction | speed MPH | gust MPH | rain 1hr in | rain 24hr in | rain mn in | humidity % | barometer mb |
| 20260507192553 | 48 | 80 | 4.0 | 8.0 | 0.00 | 0.00 | 0.00 | 78 | 1017.4 |
| 20260507191053 | 50 | 82 | 4.0 | 6.0 | 0.00 | 0.00 | 0.00 | 77 | 1017.4 |
| 20260507185553 | 50 | 82 | 4.0 | 8.0 | 0.00 | 0.00 | 0.00 | 74 | 1017.2 |
| 20260507184053 | 51 | 83 | 4.0 | 11.0 | 0.00 | 0.00 | 0.00 | 72 | 1017.1 |
| 20260507182553 | 53 | 69 | 6.0 | 11.0 | 0.00 | 0.00 | 0.00 | 68 | 1017.1 |
| 20260507181052 | 53 | 61 | 6.0 | 11.0 | 0.00 | 0.00 | 0.00 | 68 | 1017.0 |
| 20260507175552 | 53 | 63 | 6.0 | 13.0 | 0.00 | 0.00 | 0.00 | 64 | 1016.9 |
| 20260507174052 | 55 | 79 | 6.0 | 13.0 | 0.00 | 0.00 | 0.00 | 65 | 1016.8 |
| 20260507172551 | 55 | 70 | 8.0 | 13.0 | 0.00 | 0.00 | 0.00 | 66 | 1016.7 |
| 20260507171050 | 55 | 92 | 8.0 | 13.0 | 0.00 | 0.00 | 0.00 | 66 | 1016.6 |
| 20260507165551 | 57 | 93 | 8.0 | 13.0 | 0.00 | 0.00 | 0.00 | 63 | 1016.5 |
| 20260507164050 | 55 | 85 | 8.0 | 13.0 | 0.00 | 0.00 | 0.00 | 64 | 1016.4 |
| 20260507162551 | 57 | 79 | 6.0 | 15.0 | 0.00 | 0.00 | 0.00 | 60 | 1016.2 |
| 20260507161050 | 57 | 103 | 8.0 | 15.0 | 0.00 | 0.00 | 0.00 | 63 | 1016.1 |
| 20260507155550 | 59 | 112 | 6.0 | 11.0 | 0.00 | 0.00 | 0.00 | 60 | 1016.0 |
| 20260507154049 | 57 | 107 | 8.0 | 13.0 | 0.00 | 0.00 | 0.00 | 62 | 1016.0 |
| 20260507152549 | 57 | 89 | 8.0 | 15.0 | 0.00 | 0.00 | 0.00 | 61 | 1015.9 |
| 20260507151049 | 57 | 69 | 6.0 | 15.0 | 0.00 | 0.00 | 0.00 | 56 | 1015.8 |
| 20260507145548 | 60 | 69 | 4.0 | 11.0 | 0.00 | 0.00 | 0.00 | 52 | 1015.8 |
| 20260507144048 | 60 | 70 | 2.0 | 8.0 | 0.00 | 0.00 | 0.00 | 46 | 1015.7 |
| 20260507142548 | 59 | 11 | 6.0 | 11.0 | 0.00 | 0.00 | 0.00 | 51 | 1015.9 |
| 20260507141047 | 60 | 47 | 4.0 | 11.0 | 0.00 | 0.00 | 0.00 | 47 | 1015.9 |
| 20260507135547 | 59 | 56 | 6.0 | 11.0 | 0.00 | 0.00 | 0.00 | 52 | 1015.9 |
| 20260507134047 | 59 | 65 | 4.0 | 11.0 | 0.00 | 0.00 | 0.00 | 52 | 1016.0 |
| 20260507132547 | 59 | 18 | 6.0 | 15.0 | 0.00 | 0.00 | 0.00 | 54 | 1016.0 |
| 20260507131046 | 59 | 11 | 8.0 | 15.0 | 0.00 | 0.00 | 0.00 | 54 | 1015.9 |
| 20260507125546 | 59 | 33 | 6.0 | 13.0 | 0.00 | 0.00 | 0.00 | 53 | 1015.9 |
| 20260507124046 | 59 | 26 | 6.0 | 15.0 | 0.00 | 0.00 | 0.00 | 55 | 1015.9 |
| 20260507122546 | 59 | 8 | 8.0 | 15.0 | 0.00 | 0.00 | 0.00 | 55 | 1016.0 |
| 20260507121045 | 57 | 7 | 4.0 | 13.0 | 0.00 | 0.00 | 0.00 | 57 | 1016.0 |
| 20260507115545 | 57 | 12 | 6.0 | 11.0 | 0.00 | 0.00 | 0.00 | 59 | 1015.9 |
| 20260507114044 | 57 | 32 | 6.0 | 13.0 | 0.00 | 0.00 | 0.00 | 61 | 1016.0 |
| 20260507112544 | 57 | 10 | 6.0 | 13.0 | 0.00 | 0.00 | 0.00 | 62 | 1016.0 |
| 20260507111043 | 57 | 30 | 6.0 | 13.0 | 0.00 | 0.00 | 0.00 | 59 | 1016.0 |
| 20260507105544 | 55 | 344 | 6.0 | 13.0 | 0.00 | 0.00 | 0.00 | 63 | 1015.9 |
| 20260507104043 | 55 | 19 | 6.0 | 11.0 | 0.00 | 0.00 | 0.00 | 65 | 1015.8 |
| 20260507102543 | 55 | 36 | 6.0 | 13.0 | 0.00 | 0.00 | 0.00 | 65 | 1015.7 |
| 20260507101042 | 55 | 21 | 8.0 | 13.0 | 0.00 | 0.00 | 0.00 | 65 | 1015.6 |
| 20260507095542 | 53 | 22 | 6.0 | 13.0 | 0.00 | 0.00 | 0.00 | 65 | 1015.6 |
| 20260507094042 | 53 | 14 | 6.0 | 11.0 | 0.00 | 0.00 | 0.00 | 67 | 1015.5 |
| 20260507092543 | 53 | 14 | 6.0 | 11.0 | 0.00 | 0.00 | 0.00 | 69 | 1015.4 |
| 20260507091042 | 53 | 0 | 6.0 | 11.0 | 0.00 | 0.00 | 0.00 | 70 | 1015.3 |
| 20260507085541 | 53 | 356 | 6.0 | 11.0 | 0.00 | 0.00 | 0.00 | 73 | 1015.2 |
| 20260507084040 | 51 | 359 | 6.0 | 8.0 | 0.00 | 0.00 | 0.00 | 74 | 1015.2 |
| 20260507082540 | 51 | 8 | 4.0 | 11.0 | 0.00 | 0.00 | 0.00 | 74 | 1015.1 |
| 20260507081039 | 51 | 2 | 6.0 | 11.0 | 0.00 | 0.00 | 0.00 | 78 | 1015.0 |
| 20260507075540 | 50 | 10 | 4.0 | 11.0 | 0.00 | 0.00 | 0.00 | 78 | 1014.9 |
| 20260507074039 | 50 | 342 | 4.0 | 8.0 | 0.00 | 0.00 | 0.00 | 83 | 1014.8 |
| 20260507072539 | 48 | 350 | 4.0 | 6.0 | 0.00 | 0.00 | 0.00 | 82 | 1014.8 |
| 20260507071038 | 48 | 5 | 4.0 | 6.0 | 0.00 | 0.00 | 0.00 | 82 | 1014.8 |
| 20260507065538 | 46 | 24 | 4.0 | 6.0 | 0.00 | 0.00 | 0.00 | 83 | 1014.7 |
| 20260507064037 | 46 | 19 | 4.0 | 6.0 | 0.00 | 0.00 | 0.00 | 86 | 1014.6 |
| 20260507062536 | 44 | 2 | 4.0 | 6.0 | 0.00 | 0.00 | 0.00 | 88 | 1014.4 |
| 20260507061035 | 42 | 330 | 0.0 | 2.0 | 0.00 | 0.00 | 0.00 | 92 | 1014.3 |
| 20260507055535 | 41 | 42 | 0.0 | 2.0 | 0.00 | 0.00 | 0.00 | 96 | 1014.2 |
| 20260507054035 | 41 | 350 | 0.0 | 2.0 | 0.00 | 0.00 | 0.00 | 98 | 1014.1 |
| 20260507052534 | 39 | 315 | 0.0 | 2.0 | 0.00 | 0.00 | 0.00 | 99 | 1014.0 |
| 20260507051033 | 37 | 314 | 0.0 | 2.0 | 0.00 | 0.00 | 0.00 | 99 | 1014.0 |
| 20260507045533 | 37 | 306 | 0.0 | 2.0 | 0.00 | 0.00 | 0.00 | 99 | 1013.7 |
| 20260507044032 | 37 | 306 | 0.0 | 0.0 | 0.00 | 0.00 | 0.00 | 99 | 1013.4 |
| 20260507042533 | 37 | 306 | 0.0 | 2.0 | 0.00 | 0.00 | 0.00 | 99 | 1013.4 |
| 20260507041031 | 37 | 306 | 0.0 | 2.0 | 0.00 | 0.00 | 0.00 | 99 | 1013.4 |
| 20260507035531 | 37 | 320 | 0.0 | 2.0 | 0.00 | 0.00 | 0.00 | 99 | 1013.4 |
| 20260507034030 | 39 | 327 | 0.0 | 2.0 | 0.00 | 0.00 | 0.00 | 98 | 1013.2 |
| 20260507032531 | 39 | 322 | 0.0 | 2.0 | 0.00 | 0.00 | 0.00 | 97 | 1013.2 |
| 20260507031030 | 41 | 325 | 2.0 | 2.0 | 0.00 | 0.00 | 0.00 | 96 | 1013.0 |
| 20260507025529 | 41 | 334 | 2.0 | 4.0 | 0.00 | 0.00 | 0.00 | 93 | 1013.0 |
| 20260507024030 | 41 | 337 | 2.0 | 4.0 | 0.00 | 0.00 | 0.00 | 93 | 1012.9 |
| 20260507022530 | 42 | 343 | 2.0 | 6.0 | 0.00 | 0.00 | 0.00 | 90 | 1012.8 |
| 20260507021029 | 42 | 339 | 4.0 | 6.0 | 0.00 | 0.00 | 0.00 | 91 | 1012.9 |
| 20260507015529 | 42 | 329 | 4.0 | 6.0 | 0.00 | 0.00 | 0.00 | 90 | 1012.8 |
| 20260507014029 | 44 | 332 | 4.0 | 6.0 | 0.00 | 0.00 | 0.00 | 90 | 1012.6 |
| 20260507012529 | 44 | 338 | 4.0 | 6.0 | 0.00 | 0.00 | 0.00 | 90 | 1012.5 |
| 20260507011028 | 44 | 339 | 4.0 | 6.0 | 0.00 | 0.00 | 0.00 | 90 | 1012.4 |
| 20260507005528 | 44 | 347 | 2.0 | 6.0 | 0.00 | 0.00 | 0.00 | 88 | 1012.4 |
| 20260507004028 | 44 | 341 | 2.0 | 6.0 | 0.00 | 0.00 | 0.00 | 88 | 1012.3 |
| 20260507002529 | 44 | 343 | 2.0 | 6.0 | 0.00 | 0.00 | 0.00 | 87 | 1012.3 |
| 20260507001028 | 44 | 338 | 2.0 | 6.0 | 0.00 | 0.00 | 0.00 | 86 | 1012.3 |
| 20260506235527 | 46 | 342 | 4.0 | 8.0 | 0.00 | 0.00 | 0.00 | 85 | 1012.2 |
| 20260506234027 | 46 | 340 | 4.0 | 8.0 | 0.00 | 0.00 | 0.00 | 85 | 1012.2 |
| 20260506232526 | 46 | 342 | 6.0 | 8.0 | 0.00 | 0.00 | 0.00 | 83 | 1012.1 |
| 20260506231025 | 46 | 340 | 4.0 | 8.0 | 0.00 | 0.00 | 0.00 | 83 | 1012.0 |
| 20260506225525 | 48 | 346 | 4.0 | 11.0 | 0.00 | 0.00 | 0.00 | 83 | 1012.0 |
| 20260506224025 | 48 | 333 | 6.0 | 11.0 | 0.00 | 0.00 | 0.00 | 81 | 1011.9 |
| 20260506222525 | 48 | 329 | 4.0 | 8.0 | 0.00 | 0.00 | 0.00 | 82 | 1011.9 |
| 20260506221025 | 46 | 333 | 2.0 | 4.0 | 0.00 | 0.00 | 0.00 | 83 | 1011.8 |
| 20260506215525 | 46 | 328 | 4.0 | 4.0 | 0.00 | 0.00 | 0.00 | 83 | 1011.7 |
| 20260506214025 | 48 | 332 | 4.0 | 4.0 | 0.00 | 0.00 | 0.00 | 81 | 1011.7 |
| 20260506212525 | 48 | 338 | 4.0 | 4.0 | 0.00 | 0.00 | 0.00 | 80 | 1011.6 |
| 20260506211025 | 48 | 346 | 2.0 | 6.0 | 0.00 | 0.00 | 0.00 | 80 | 1011.6 |
| 20260506205525 | 48 | 358 | 4.0 | 8.0 | 0.00 | 0.00 | 0.00 | 78 | 1011.6 |
| 20260506204024 | 48 | 11 | 6.0 | 11.0 | 0.00 | 0.00 | 0.00 | 76 | 1011.4 |
| 20260506202524 | 48 | 13 | 6.0 | 8.0 | 0.00 | 0.00 | 0.00 | 75 | 1011.4 |
| 20260506201024 | 48 | 7 | 6.0 | 11.0 | 0.00 | 0.00 | 0.00 | 75 | 1011.3 |
| 20260506195524 | 48 | 15 | 6.0 | 11.0 | 0.00 | 0.00 | 0.00 | 75 | 1011.1 |
| 20260506194023 | 48 | 16 | 6.0 | 11.0 | 0.00 | 0.00 | 0.00 | 74 | 1011.0 |